Location: Unspecified
(51.3762°N, 0.0000°E)
Time: 13:56:44
(UTC+00:00)

nSIGHT-1 - Pass Details

Date: 26 August 2019
Orbit: 341 x 348 km, 51.6° (Epoch: 22 September)

Event Time Altitude Azimuth Distance (km) Brightness Sun altitude
Exits shadow 02:34:41 23° 114° (ESE) 784 ? -19.8°
Drops below altitude 10° 02:36:16 10° 88° (E) 1,295 ? -19.7°
Sets 02:38:25 0° 77° (ENE) 2,139 ? -19.5°
